STARLINK-35769

Last updated on Mon Dec 15 2025 00:02:12 GMT+0000 (Coordinated Universal Time)

1 66842U 25280X 25348.25003472 -.01571721 00000+0 -12475-1 0 9993 2 66842 69.9940 194.4961 0003563 270.0800 69.1534 15.74206936 3142
UTC large
Height (km)
Speed (km/s)
/
Latitude / Longitude
Inclination (degrees)
Orbital Period (minutes)
Azimuth
Elevation
Range (km)
Doppler Factor

Next 0 passes for location: London (51.5072 / 0.1276)

Sorry there are no passes over London.